[[{"header":{"parameterUnit":"m.s-1","parameterCategory":1,"la1":30.2991,"la2":30.254,"lo1":-89.0895,"lo2":-89.0444,"dy":0.0017,"dx":0.0017,"nx":28,"ny":28,"refTime":"2024-03-02T03:00:00:Z","depth":0,"parameterNumber":2,"parameterNumberName":"U-component_of_WINDS"},"data":[0,0,0,0,0,0,0,0,0,0,0,0,0,0,0,0,0,0,0,0,0,0,0,0,0,0,0,0,0,0,0,0,0,0,0,0,0,0,0,0,0,0,0,0,0,0,0,0,0,0,0,0,0,0,0,0,0,0,-0.6035,-0.6035,0,-0.605,-0.605,-0.605,-0.6034,-0.6033,-0.6033,-0.6032,-0.6048,-0.6049,-0.605,0,0,0,0,0,0,0,0,0,0,0,0,0,-0.5994,-0.5995,-0.6035,-0.6035,-0.6036,-0.605,-0.605,-0.605,-0.6034,-0.6033,-0.6033,-0.6032,-0.6048,-0.6049,-0.605,0,0,0,0,0,0,0,0,0,0,0,0,0,-0.6011,-0.5996,-0.6035,-0.6029,-0.6029,-0.605,-0.605,-0.605,-0.6034,-0.6033,-0.6033,-0.6032,-0.6047,-0.6049,-0.605,-0.6078,0,0,-0.6055,-0.6055,0,0,0,0,0,0,0,0,-0.601,-0.6012,-0.603,-0.603,-0.6029,-0.6039,-0.6041,-0.6059,-0.6035,-0.6032,-0.6032,-0.6031,-0.6046,-0.6047,-0.6052,-0.6078,-0.6079,-0.6055,-0.6056,-0.6056,-0.6057,0,0,0,0,0,0,0,-0.6009,-0.6012,-0.6041,-0.603,-0.603,-0.6026,-0.6027,-0.6045,-0.6044,-0.6032,-0.6031,-0.6033,-0.6046,-0.6051,-0.6052,-0.6079,-0.6055,-0.6056,-0.6057,-0.6058,-0.6128,-0.6129,0,0,0,0,0,0,-0.6008,-0.6011,-0.6041,-0.6041,-0.6017,-0.6028,-0.6029,-0.6037,-0.6044,-0.6044,-0.6034,-0.6032,-0.6049,-0.6051,-0.6053,-0.6085,-0.6056,-0.6058,-0.6059,-0.6127,-0.6128,-0.6129,0,0,0,0,0,0,-0.6007,-0.6011,-0.604,-0.6026,-0.6029,-0.6029,-0.6038,-0.6038,-0.6043,-0.6045,-0.6045,-0.6039,-0.6048,-0.6051,-0.6071,-0.6086,-0.6058,-0.606,-0.6126,-0.6128,-0.6129,-0.615,0,0,0,0,0,0,-0.6006,-0.6011,-0.6021,-0.6026,-0.603,-0.6058,-0.6039,-0.6039,-0.6045,-0.6044,-0.605,-0.605,-0.6048,-0.6069,-0.6073,-0.6087,-0.6061,-0.6125,-0.6127,-0.6128,-0.6149,-0.6153,-0.6156,0,0,0,0,0,-0.6005,-0.6027,-0.6022,-0.6026,-0.6043,-0.6059,-0.6061,-0.6057,-0.6047,-0.6057,-0.6058,-0.605,-0.6083,-0.6072,-0.6075,-0.609,-0.6124,-0.6126,-0.6128,-0.6147,-0.6152,-0.6156,0,0,0,0,0,0,-0.6024,-0.6028,-0.6022,-0.6046,-0.6052,-0.6056,-0.607,-0.6063,-0.6073,-0.607,-0.6065,-0.6067,-0.6089,-0.6092,-0.6078,-0.6117,-0.6102,-0.6105,-0.6115,-0.6119,-0.6123,-0.6122,-0.6062,0,0,0,0,0,-0.6031,-0.6044,-0.6046,-0.6068,-0.6071,-0.607,-0.6077,-0.6073,-0.6079,-0.6082,-0.6085,-0.6091,-0.6103,-0.6111,-0.6122,-0.6148,-0.615,-0.6161,-0.6164,-0.6167,-0.617,-0.6184,-0.6189,-0.6137,-0.6137,-0.6137,0,0,-0.6046,-0.605,-0.6058,-0.6071,-0.6076,-0.6089,-0.6072,-0.6087,-0.6097,-0.6084,-0.6104,-0.6106,-0.6113,-0.6137,-0.6147,-0.6139,-0.6185,-0.617,-0.6173,-0.6174,-0.6187,-0.6192,-0.6196,-0.6138,-0.6138,-0.6138,0,0,-0.608,-0.6084,-0.6102,-0.6107,-0.6113,-0.6112,-0.6116,-0.6121,-0.6122,-0.6141,-0.6132,-0.6144,-0.6164,-0.617,-0.6175,-0.621,-0.6203,-0.6214,-0.6234,-0.6247,-0.6251,-0.6255,-0.6267,-0.6272,-0.6217,-0.6217,-0.6217,0,-0.6098,-0.6118,-0.6112,-0.6128,-0.6134,-0.6122,-0.6141,-0.6145,-0.6155,-0.616,-0.6151,-0.6176,-0.618,-0.6205,-0.6213,-0.6218,-0.6223,-0.6213,-0.6251,-0.6255,-0.6258,-0.627,-0.6275,-0.6218,-0.6218,-0.6218,-0.6218,0,-0.6139,-0.6153,-0.6167,-0.6176,-0.6184,-0.6201,-0.6198,-0.6206,-0.6201,-0.6201,-0.6221,-0.6225,-0.6237,-0.6242,-0.6238,-0.6266,-0.6261,-0.6252,-0.6236,-0.6264,-0.6276,-0.628,-0.622,-0.6219,-0.6219,-0.6219,0,0,-0.6187,-0.6193,-0.6198,-0.6202,-0.6208,-0.6218,-0.6234,-0.6245,-0.6253,-0.626,-0.6273,-0.629,-0.6281,-0.6288,-0.6284,-0.6296,-0.6323,-0.6285,-0.6285,-0.6292,-0.6354,-0.6361,-0.6367,-0.6318,-0.6319,-0.6319,-0.6353,0,-0.6222,-0.6249,-0.6244,-0.6271,-0.6284,-0.6273,-0.6286,-0.6292,-0.6292,-0.6302,-0.6302,-0.6315,-0.6302,-0.6306,-0.6317,-0.6317,-0.6336,-0.6315,-0.6331,-0.6331,-0.633,-0.6373,-0.6381,-0.6413,-0.6358,-0.6359,-0.6359,0,-0.6266,-0.6274,-0.6302,-0.6305,-0.631,-0.6323,-0.6332,-0.6342,-0.6348,-0.6347,-0.6353,-0.6347,-0.6363,-0.6347,-0.6369,-0.6355,-0.6361,-0.6362,-0.6363,-0.6365,-0.6347,-0.6376,-0.6423,-0.6428,-0.6366,-0.6365,-0.6365,0,-0.6298,-0.6316,-0.6335,-0.6339,-0.6343,-0.6352,-0.6355,-0.6359,-0.6366,-0.6374,-0.6378,-0.6388,-0.6394,-0.6401,-0.6398,-0.6386,-0.6421,-0.6404,-0.642,-0.6421,-0.6429,-0.6429,-0.6478,-0.6432,-0.6432,-0.6432,-0.6432,0,-0.6337,-0.6355,-0.635,-0.6361,-0.6381,-0.6375,-0.6394,-0.6395,-0.6399,-0.6411,-0.6401,-0.6413,-0.6407,-0.6418,-0.6416,-0.6434,-0.6437,-0.6436,-0.6436,-0.6438,-0.6438,-0.6442,-0.644,-0.6433,-0.6433,-0.6432,-0.6432,0,-0.6377,-0.6374,-0.6394,-0.6397,-0.6397,-0.6412,-0.6414,-0.6425,-0.6423,-0.6438,-0.6442,-0.644,-0.6452,-0.6449,-0.6463,-0.6461,-0.6484,-0.648,-0.6482,-0.6482,-0.6498,-0.6497,-0.6553,-0.656,-0.6509,-0.6509,-0.651,0,-0.6403,-0.6416,-0.642,-0.6427,-0.643,-0.6441,-0.6448,-0.6442,-0.6449,-0.6456,-0.6466,-0.6477,-0.6486,-0.6506,-0.6506,-0.6516,-0.6513,-0.6531,-0.6514,-0.6516,-0.6513,-0.6513,-0.6514,-0.6535,-0.6536,-0.6536,-0.6537,0,-0.6449,-0.6446,-0.6456,-0.6465,-0.6473,-0.648,-0.6486,-0.6492,-0.6487,-0.6495,-0.6507,-0.6514,-0.6527,-0.6539,-0.6548,-0.655,-0.6543,-0.6542,-0.6546,-0.6549,-0.6549,-0.655,-0.6492,-0.6541,-0.654,-0.654,-0.654,-0.654,-0.6483,-0.6494,-0.6498,-0.6509,-0.6512,-0.6518,-0.6528,-0.6528,-0.6538,-0.6548,-0.6544,-0.6558,-0.6562,-0.6574,-0.6577,-0.6588,-0.6581,-0.6587,-0.6589,-0.6591,-0.6593,-0.6547,-0.659,-0.659,-0.6589,-0.6589,-0.6589,0,-0.6528,-0.653,-0.654,-0.6548,-0.6557,-0.6548,-0.6554,-0.6562,-0.6574,-0.6579,-0.6587,-0.6601,-0.6612,-0.6612,-0.6622,-0.6631,-0.6627,-0.6634,-0.6633,-0.6634,-0.6599,-0.6594,-0.6636,-0.6636,-0.6636,-0.6636,-0.6636,-0.6636,-0.6553,-0.6571,-0.6569,-0.6589,-0.6591,-0.6604,-0.6608,-0.6614,-0.6617,-0.6633,-0.6641,-0.6641,-0.6644,-0.6654,-0.6664,-0.6663,-0.6668,-0.6675,-0.6674,-0.6641,-0.6636,-0.6632,-0.6628,-0.6676,-0.6676,-0.6708,-0.6709,-0.6709]},{"header":{"parameterUnit":"m.s-1","parameterCategory":1,"la1":30.2991,"la2":30.254,"lo1":-89.0895,"lo2":-89.0444,"dy":0.0017,"dx":0.0017,"nx":28,"ny":28,"refTime":"2024-03-02T03:00:00:Z","depth":0,"parameterNumber":3,"parameterNumberName":"V-component_of_WINDS"},"data":[0,0,0,0,0,0,0,0,0,0,0,0,0,0,0,0,0,0,0,0,0,0,0,0,0,0,0,0,0,0,0,0,0,0,0,0,0,0,0,0,0,0,0,0,0,0,0,0,0,0,0,0,0,0,0,0,0,0,-2.9714,-2.9715,0,-2.9735,-2.9735,-2.9736,-2.9706,-2.9705,-2.9703,-2.9702,-2.9721,-2.9722,-2.9724,0,0,0,0,0,0,0,0,0,0,0,0,0,-2.9646,-2.9647,-2.9714,-2.9715,-2.9715,-2.9735,-2.9735,-2.9736,-2.9706,-2.9704,-2.9703,-2.9702,-2.972,-2.9722,-2.9724,0,0,0,0,0,0,0,0,0,0,0,0,0,-2.9672,-2.9648,-2.9714,-2.9702,-2.9702,-2.9735,-2.9735,-2.9736,-2.9706,-2.9704,-2.9703,-2.9701,-2.972,-2.9722,-2.9724,-2.9769,0,0,-2.9731,-2.9732,0,0,0,0,0,0,0,0,-2.967,-2.9674,-2.9704,-2.9703,-2.9702,-2.9716,-2.9718,-2.9747,-2.9706,-2.9704,-2.9702,-2.9701,-2.972,-2.9723,-2.973,-2.977,-2.9771,-2.9731,-2.9732,-2.9733,-2.9734,0,0,0,0,0,0,0,-2.9669,-2.9673,-2.9722,-2.9704,-2.9704,-2.9695,-2.9697,-2.9723,-2.9721,-2.9704,-2.9702,-2.9705,-2.972,-2.9728,-2.973,-2.9771,-2.9731,-2.9733,-2.9734,-2.9735,-2.9849,-2.9851,0,0,0,0,0,0,-2.9669,-2.9672,-2.9722,-2.9723,-2.9682,-2.9698,-2.97,-2.9713,-2.9721,-2.972,-2.9707,-2.9704,-2.9725,-2.9727,-2.9731,-2.9784,-2.9733,-2.9735,-2.9737,-2.9848,-2.985,-2.9851,0,0,0,0,0,0,-2.9667,-2.9673,-2.9721,-2.9697,-2.9702,-2.9701,-2.9716,-2.9715,-2.9723,-2.9722,-2.9721,-2.9715,-2.9724,-2.9727,-2.976,-2.9784,-2.9736,-2.9738,-2.9846,-2.9848,-2.9851,-2.989,0,0,0,0,0,0,-2.9666,-2.9673,-2.9691,-2.9698,-2.9704,-2.9751,-2.9717,-2.9716,-2.9727,-2.9723,-2.973,-2.973,-2.9723,-2.9757,-2.9762,-2.9786,-2.974,-2.9843,-2.9847,-2.985,-2.9887,-2.9894,-2.99,0,0,0,0,0,-2.9663,-2.9701,-2.9692,-2.9698,-2.9726,-2.9753,-2.9756,-2.9748,-2.9729,-2.9746,-2.9746,-2.973,-2.978,-2.9761,-2.9766,-2.9791,-2.9842,-2.9846,-2.9849,-2.9884,-2.9893,-2.99,0,0,0,0,0,0,-2.9696,-2.9701,-2.9692,-2.9733,-2.9743,-2.9747,-2.9769,-2.9757,-2.9772,-2.9768,-2.9756,-2.9758,-2.9793,-2.9795,-2.9773,-2.9835,-2.9808,-2.9813,-2.9832,-2.984,-2.9847,-2.9845,-2.9742,0,0,0,0,0,-2.9708,-2.973,-2.9733,-2.9769,-2.9775,-2.9771,-2.9782,-2.9775,-2.9784,-2.9788,-2.979,-2.9799,-2.9817,-2.9829,-2.9845,-2.9887,-2.9888,-2.9907,-2.9913,-2.9919,-2.9923,-2.9945,-2.9954,-2.9864,-2.9864,-2.9864,0,0,-2.9733,-2.9739,-2.9753,-2.9776,-2.9782,-2.9804,-2.9775,-2.9799,-2.9815,-2.9791,-2.9822,-2.9824,-2.9833,-2.9871,-2.9887,-2.9874,-2.9948,-2.9924,-2.9928,-2.993,-2.995,-2.9959,-2.9966,-2.9867,-2.9866,-2.9866,0,0,-2.979,-2.9797,-2.9827,-2.9835,-2.9846,-2.9843,-2.9851,-2.9857,-2.9858,-2.9889,-2.9872,-2.989,-2.9921,-2.9928,-2.9936,-2.9995,-2.9981,-3.0001,-3.0035,-3.0057,-3.0064,-3.007,-3.0091,-3.0099,-3.0006,-3.0006,-3.0006,0,-2.9819,-2.9853,-2.9844,-2.987,-2.988,-2.9861,-2.9891,-2.9899,-2.9914,-2.9921,-2.9906,-2.9944,-2.9949,-2.9988,-3.0002,-3.0009,-3.0017,-3.0,-3.0064,-3.007,-3.0075,-3.0095,-3.0103,-3.0008,-3.0008,-3.0008,-3.0007,0,-2.9888,-2.9912,-2.9935,-2.9951,-2.9964,-2.9992,-2.9987,-3.0001,-2.9992,-2.9991,-3.0023,-3.0028,-3.0045,-3.0054,-3.0045,-3.0091,-3.0082,-3.0066,-3.0038,-3.0087,-3.0105,-3.0112,-3.0011,-3.0011,-3.001,-3.0009,0,0,-2.9966,-2.9978,-2.9986,-2.9993,-3.0004,-3.0021,-3.0048,-3.0066,-3.0077,-3.0088,-3.011,-3.0137,-3.0122,-3.013,-3.0123,-3.0142,-3.0188,-3.0123,-3.0123,-3.0135,-3.0239,-3.0251,-3.026,-3.0179,-3.018,-3.0182,-3.0238,0,-3.0022,-3.007,-3.0063,-3.0108,-3.0129,-3.0111,-3.0134,-3.0143,-3.0142,-3.0159,-3.0158,-3.0178,-3.0156,-3.0161,-3.018,-3.0179,-3.0209,-3.0175,-3.0198,-3.0199,-3.0196,-3.027,-3.0283,-3.0336,-3.0245,-3.0246,-3.0247,0,-3.0095,-3.011,-3.0157,-3.0165,-3.0173,-3.0194,-3.021,-3.0227,-3.0235,-3.0234,-3.0244,-3.0233,-3.0258,-3.0231,-3.0266,-3.0243,-3.0252,-3.0253,-3.0255,-3.0256,-3.0226,-3.0273,-3.0352,-3.036,-3.0258,-3.0257,-3.0257,0,-3.0146,-3.0178,-3.0211,-3.0217,-3.0227,-3.0242,-3.0246,-3.0254,-3.0265,-3.0278,-3.0285,-3.03,-3.0309,-3.0321,-3.0314,-3.0295,-3.035,-3.0322,-3.0349,-3.0349,-3.0361,-3.036,-3.0443,-3.0368,-3.0367,-3.0367,-3.0367,0,-3.021,-3.024,-3.0234,-3.0254,-3.0287,-3.0278,-3.031,-3.0312,-3.0319,-3.0338,-3.0323,-3.0342,-3.0332,-3.0349,-3.0344,-3.0373,-3.0377,-3.0376,-3.0374,-3.0377,-3.0377,-3.0383,-3.0379,-3.0369,-3.0369,-3.0368,-3.0368,0,-3.0273,-3.0271,-3.0305,-3.0311,-3.0313,-3.0337,-3.0342,-3.036,-3.0359,-3.0383,-3.0389,-3.0386,-3.0406,-3.04,-3.0421,-3.0417,-3.0455,-3.0448,-3.0452,-3.045,-3.0477,-3.0475,-3.0566,-3.0577,-3.0495,-3.0496,-3.0496,0,-3.0314,-3.0336,-3.0345,-3.0358,-3.0364,-3.0384,-3.0395,-3.0387,-3.0399,-3.0411,-3.0428,-3.0447,-3.0461,-3.0493,-3.0492,-3.0508,-3.0502,-3.0533,-3.0504,-3.0506,-3.0502,-3.0501,-3.0503,-3.0538,-3.0539,-3.054,-3.0541,0,-3.0386,-3.0384,-3.0401,-3.0419,-3.0433,-3.0446,-3.0457,-3.0468,-3.0461,-3.0475,-3.0495,-3.0507,-3.0528,-3.0547,-3.0561,-3.0564,-3.0551,-3.055,-3.0557,-3.056,-3.0561,-3.056,-3.0467,-3.0548,-3.0547,-3.0546,-3.0546,-3.0546,-3.0439,-3.0458,-3.0468,-3.0487,-3.0495,-3.0506,-3.0524,-3.0525,-3.0542,-3.056,-3.0554,-3.0577,-3.0585,-3.0603,-3.0609,-3.0626,-3.0614,-3.0624,-3.0627,-3.0629,-3.0633,-3.0559,-3.0629,-3.0628,-3.0628,-3.0628,-3.0628,0,-3.051,-3.0516,-3.0534,-3.0551,-3.0566,-3.0554,-3.0565,-3.0579,-3.06,-3.0609,-3.0623,-3.0647,-3.0664,-3.0665,-3.0682,-3.0695,-3.069,-3.07,-3.0699,-3.0699,-3.0642,-3.0635,-3.0704,-3.0704,-3.0704,-3.0704,-3.0704,-3.0704,-3.0549,-3.0581,-3.058,-3.0615,-3.062,-3.0643,-3.0651,-3.0661,-3.0668,-3.0695,-3.071,-3.0711,-3.0716,-3.0733,-3.0748,-3.0748,-3.0754,-3.0767,-3.0764,-3.0711,-3.0703,-3.0696,-3.0689,-3.0769,-3.0769,-3.082,-3.082,-3.0821]}]]